FENGYUN 1C DEB, 30020

Orbit data source: Space-Track

FENGYUN 1C DEB, 30020 is space debris in SSO originally from a launch on Mon, 10 May 1999 UTC launched from the Taiyaun Space Center, China (TSC). Fengyun 1C debris stems from the Chinese weather satellite Fengyun-1C, which was intentionally destroyed by a Chinese anti-satellite missile in 2007. This event dramatically increased the amount of space debris, with thousands of trackable fragments posing hazards to satellites and human spaceflight. The Fengyun 1C debris cloud has become a focal point in discussions about space sustainability and the need for international regulations to prevent the creation of new debris.

Loading next visibility...
Identifier
30020, 1999-025MV
Orbit
SSO
Country
Flag of CNCN / PRC
Related business
Manufacturer
Unknown
Mission
Spacecraft
Bus & Motor
Unknown
Mass
Unknown
Launch date (UTC)
1999-05-10 (27 years ago)
Launch vehicle
Unknown
Launch site
Taiyaun Space Center, China (TSC)
Object type
Payload
Rocket body
Debris
Shape & HBR
Unknown shape, 0.1 m
Radar Cross Section
Medium (>0.1 m² and <1 m²)

Expand to show TLE details & history
Last TLE update: 23 hours ago

TLE from 23 hours ago
0 FENGYUN 1C DEB
1 30020U 99025MV  26238.00947153  .00000863  00000-0  48452-3 0  9993
2 30020  98.8512 240.5694 0183711  73.1247 310.1630 14.04860381  2545
Epoch: 2026-08-26T00:13Z
TLE epoch observation values (Epoch: 2026-08-26T00:13:38.340Z)
Latitude
21.39603°
Longitude
-100.58838°
Altitude
795.09 km
Speed
7.501 km/s
True Right ascension
15h 48m 21s
True Declination
21° 16' 48"
Sunlit
Object was in daylight at epoch
Visualization orbit readout
Latitude
Unknown
Longitude
Unknown
Altitude
Unknown
Speed
Unknown
Apparent Right ascension
Unknown
Apparent Declination
Unknown
Sunlit
N/A
Visualization observer readout
Local Sidereal Time
14:41:20
Azimuth
Unknown
Elevation
Unknown
Doppler factor
Unknown
Orbital elements
Apogee altitude
1,007.431 km
Perigee altitude
740.964 km
Semi-major axis
7,252.334 km
Eccentricity
0.01837
Inclination
98.8512°
RAAN
240.5694°
Arg. of periapsis
73.1247°
True anomaly
308.53025°
Mean anomaly
310.163°
Eccentric anomaly
309.34904°
Mean motion
3.5142 °/min
Orbital period
102.44 mins
BSTAR
0.00048452
Loading maneuver chart data...
Computing Atmospheric mass density...

Documentation

Showing up to 5 results
|